Starlink 3872

operational
NORAD ID: 52453 Int'l Des: 2022-049 Owner: SPXS Country: US Constellation: starlink
LEOCIRCULAR

Über Starlink 3872

Beschreibung wird geladen...

Live-Position

3D-Globus wird geladen...

Nächste Überflüge

Höhenverlauf

Altitude vs Time

uPlot chart will show altitude changes over time

Zweizeiliger Elementsatz

1 52453U 22049C 25308.37832947 -.00005393 00000-0 -32074-3 0 9998
2 52453 53.2170 271.6649 0001556 96.9612 263.1558 15.08869547193190
Epoch: 4. Nov. 2025 • Age: 9 hours

Aktueller Status

Höhe 552.6 km
Geschwindigkeit 7.58 km/s
Subsatellitenpunkt -37.10°S, 84.6°W
Startdatum 6. Mai 2022
Alter 3.4 years
Typ internet

Technische Details

Klassifizierung Payload
Masse 297.00 kg
Trockenmasse 220.00 kg
Gesamtmasse 297.00 kg
Länge 0.20 m
Durchmesser 2.80 m
Spannweite 9.00 m
Form Box + pan
Hersteller SPXS
Bus-Typ Starlink
Phasenstatus In Orbit
Besitzer/Staat SPXS/US

Große Konstellationen

Loading constellations...